Wetterdaten: aktuell Dienstag, 23.04.2024 07:40
Datum Zeit Temp. A. Feuchte A. Luftdruck Regen Wind Richtung Richtung Windben
23.04.2024 07:40 3,0 C 71 % 1016,7 hPa 0,0 l/m 0,0 km/h NO 41 0,0 km/h
23.04.2024 07:35 2,8 C 71 % 1016,7 hPa 0,2 l/m 0,0 km/h W-NW 288 0,0 km/h
23.04.2024 07:30 2,7 C 71 % 1016,8 hPa 0,0 l/m 0,0 km/h W-NW 288 0,0 km/h
23.04.2024 07:25 2,7 C 71 % 1016,8 hPa 0,0 l/m 0,0 km/h W-NW 290 0,0 km/h
23.04.2024 07:20 2,6 C 72 % 1017,0 hPa 0,2 l/m 0,0 km/h O-NO 58 0,0 km/h
23.04.2024 07:15 2,4 C 72 % 1016,9 hPa 0,0 l/m 0,0 km/h NO 50 0,0 km/h
23.04.2024 07:10 2,3 C 72 % 1016,9 hPa 0,2 l/m 0,0 km/h NO 50 0,0 km/h
23.04.2024 07:05 2,2 C 72 % 1017,0 hPa 0,0 l/m 0,0 km/h N-NW 334 0,0 km/h
23.04.2024 07:00 2,1 C 72 % 1017,0 hPa 0,0 l/m 0,0 km/h N 355 0,0 km/h
23.04.2024 06:55 2,0 C 73 % 1017,0 hPa 0,2 l/m 0,0 km/h N-NO 23 0,0 km/h
23.04.2024 06:50 1,9 C 73 % 1017,0 hPa 0,2 l/m 0,0 km/h NW 314 0,0 km/h
23.04.2024 06:45 1,8 C 73 % 1017,0 hPa 0,0 l/m 0,0 km/h N 1 0,0 km/h
23.04.2024 06:40 1,6 C 74 % 1017,1 hPa 0,2 l/m 0,0 km/h NW 307 0,0 km/h
23.04.2024 06:35 1,5 C 74 % 1017,1 hPa 0,2 l/m 0,0 km/h NO 35 0,0 km/h
23.04.2024 06:30 1,4 C 74 % 1017,0 hPa 0,2 l/m 0,0 km/h N-NW 348 0,0 km/h
23.04.2024 06:25 1,3 C 74 % 1016,9 hPa 0,2 l/m 0,0 km/h NW 324 0,0 km/h
23.04.2024 06:20 1,3 C 75 % 1017,0 hPa 0,0 l/m 0,0 km/h N-NO 17 0,0 km/h
23.04.2024 06:15 1,2 C 75 % 1017,1 hPa 0,4 l/m 0,0 km/h NW 321 0,0 km/h
23.04.2024 06:10 1,2 C 75 % 1017,1 hPa 0,0 l/m 0,0 km/h N-NW 331 0,0 km/h
23.04.2024 06:05 1,1 C 76 % 1017,1 hPa 0,4 l/m 0,0 km/h N-NW 331 0,0 km/h
23.04.2024 06:00 1,1 C 76 % 1017,2 hPa 0,2 l/m 0,0 km/h N-NW 331 0,0 km/h
23.04.2024 05:55 1,2 C 76 % 1017,1 hPa 0,2 l/m 0,0 km/h N-NW 331 0,0 km/h
23.04.2024 05:50 1,2 C 76 % 1017,2 hPa 0,2 l/m 0,0 km/h N-NW 331 0,0 km/h
23.04.2024 05:45 1,2 C 76 % 1017,1 hPa 0,2 l/m 0,0 km/h N-NW 331 0,0 km/h
23.04.2024 05:40 1,3 C 76 % 1017,1 hPa 0,4 l/m 0,0 km/h N-NW 331 0,0 km/h
23.04.2024 05:35 1,2 C 76 % 1017,1 hPa 0,0 l/m 0,0 km/h N-NW 331 0,0 km/h
23.04.2024 05:30 1,2 C 76 % 1017,1 hPa 0,2 l/m 0,0 km/h N-NW 331 0,0 km/h
23.04.2024 05:25 1,2 C 77 % 1017,0 hPa 0,2 l/m 0,0 km/h N-NW 331 0,0 km/h
23.04.2024 05:20 1,1 C 77 % 1017,0 hPa 0,2 l/m 0,0 km/h N-NW 331 0,0 km/h
23.04.2024 05:15 1,1 C 77 % 1017,0 hPa 0,2 l/m 0,0 km/h N-NW 331 0,0 km/h
23.04.2024 05:10 1,1 C 77 % 1017,0 hPa 0,2 l/m 0,0 km/h N-NW 331 0,0 km/h
23.04.2024 05:05 1,1 C 77 % 1017,0 hPa 0,2 l/m 0,0 km/h N-NW 331 0,0 km/h
23.04.2024 05:00 1,1 C 78 % 1016,9 hPa 0,2 l/m 0,0 km/h N-NW 331 0,0 km/h
23.04.2024 04:55 1,1 C 78 % 1017,0 hPa 0,2 l/m 0,0 km/h N-NW 331 0,0 km/h
23.04.2024 04:50 1,2 C 78 % 1017,0 hPa 0,0 l/m 0,0 km/h N-NW 331 0,0 km/h
23.04.2024 04:45 1,2 C 78 % 1017,0 hPa 0,2 l/m 0,0 km/h N-NW 331 0,0 km/h
23.04.2024 04:40 1,1 C 78 % 1017,0 hPa 0,2 l/m 0,0 km/h N-NW 331 0,0 km/h
23.04.2024 04:35 1,2 C 79 % 1017,1 hPa 0,0 l/m 0,0 km/h N-NW 331 0,0 km/h
23.04.2024 04:30 1,2 C 79 % 1017,1 hPa 0,2 l/m 0,0 km/h N-NW 331 0,0 km/h
23.04.2024 04:25 1,2 C 79 % 1017,1 hPa 0,0 l/m 0,0 km/h N-NW 331 0,0 km/h
23.04.2024 04:20 1,3 C 79 % 1017,2 hPa 0,2 l/m 0,0 km/h N-NW 331 0,0 km/h
23.04.2024 04:15 1,6 C 79 % 1017,2 hPa 0,0 l/m 0,0 km/h N-NW 341 0,0 km/h
23.04.2024 04:10 1,8 C 79 % 1017,2 hPa 0,2 l/m 0,0 km/h O-SO 118 0,0 km/h
23.04.2024 04:05 1,9 C 79 % 1017,2 hPa 0,2 l/m 0,0 km/h O-SO 118 0,0 km/h
23.04.2024 04:00 2,1 C 79 % 1017,4 hPa 0,0 l/m 0,0 km/h O-SO 118 0,0 km/h
23.04.2024 03:55 2,2 C 79 % 1017,5 hPa 0,2 l/m 0,0 km/h O-SO 118 0,0 km/h
23.04.2024 03:50 2,3 C 79 % 1017,4 hPa 0,2 l/m 0,0 km/h O-SO 118 0,0 km/h
23.04.2024 03:45 2,4 C 79 % 1017,4 hPa 0,0 l/m 0,0 km/h O-SO 118 0,0 km/h
23.04.2024 03:40 2,4 C 80 % 1017,4 hPa 0,4 l/m 0,0 km/h O-SO 118 0,0 km/h
23.04.2024 03:35 2,5 C 80 % 1017,4 hPa 0,0 l/m 0,0 km/h O-SO 118 0,0 km/h
23.04.2024 03:30 2,5 C 80 % 1017,4 hPa 0,2 l/m 0,0 km/h O-SO 118 0,0 km/h
23.04.2024 03:25 2,5 C 80 % 1017,4 hPa 0,2 l/m 0,0 km/h O-SO 118 0,0 km/h
23.04.2024 03:20 2,6 C 80 % 1017,5 hPa 0,0 l/m 0,0 km/h O-SO 118 0,0 km/h
23.04.2024 03:15 2,7 C 80 % 1017,5 hPa 0,2 l/m 0,0 km/h O-SO 118 0,0 km/h
23.04.2024 03:10 2,9 C 80 % 1017,6 hPa 0,2 l/m 0,0 km/h O-SO 118 0,0 km/h
23.04.2024 03:05 3,1 C 80 % 1017,6 hPa 0,0 l/m 0,0 km/h O-SO 118 0,0 km/h
23.04.2024 03:00 3,2 C 79 % 1017,6 hPa 0,2 l/m 0,0 km/h O-SO 118 0,0 km/h
23.04.2024 02:55 3,2 C 80 % 1017,8 hPa 0,2 l/m 0,0 km/h O-SO 118 0,0 km/h
23.04.2024 02:50 3,3 C 80 % 1017,8 hPa 0,0 l/m 0,0 km/h O-SO 118 0,0 km/h
23.04.2024 02:45 3,3 C 80 % 1017,8 hPa 0,0 l/m 0,0 km/h O-SO 118 0,0 km/h
23.04.2024 02:40 3,4 C 80 % 1017,9 hPa 0,2 l/m 0,0 km/h O-SO 118 0,0 km/h
23.04.2024 02:35 3,4 C 80 % 1017,9 hPa 0,0 l/m 0,0 km/h O-SO 118 0,0 km/h
23.04.2024 02:30 3,5 C 81 % 1017,9 hPa 0,2 l/m 0,0 km/h O-SO 118 0,0 km/h
23.04.2024 02:25 3,5 C 81 % 1017,9 hPa 0,0 l/m 0,0 km/h O 98 0,0 km/h
23.04.2024 02:20 3,6 C 81 % 1017,9 hPa 0,0 l/m 0,0 km/h O 98 0,0 km/h
23.04.2024 02:15 3,6 C 81 % 1018,0 hPa 0,0 l/m 0,0 km/h O 98 0,0 km/h
23.04.2024 02:10 3,7 C 81 % 1018,0 hPa 0,2 l/m 0,0 km/h O 98 0,0 km/h
23.04.2024 02:05 3,7 C 81 % 1018,0 hPa 0,0 l/m 0,0 km/h O 98 0,0 km/h
23.04.2024 02:00 3,7 C 82 % 1018,1 hPa 0,2 l/m 0,0 km/h NO 39 0,0 km/h
23.04.2024 01:55 3,7 C 82 % 1018,1 hPa 0,0 l/m 0,0 km/h N-NW 327 0,0 km/h
23.04.2024 01:50 3,7 C 83 % 1018,0 hPa 0,0 l/m 0,0 km/h N-NW 327 0,0 km/h
23.04.2024 01:45 3,7 C 83 % 1018,2 hPa 0,0 l/m 0,0 km/h N-NW 327 0,0 km/h
23.04.2024 01:40 3,7 C 83 % 1018,2 hPa 0,0 l/m 0,0 km/h N-NW 327 0,0 km/h
23.04.2024 01:35 3,7 C 83 % 1018,3 hPa 0,0 l/m 0,0 km/h N-NW 327 0,0 km/h
23.04.2024 01:30 3,7 C 83 % 1018,3 hPa 0,0 l/m 0,0 km/h N-NW 327 0,0 km/h
23.04.2024 01:25 3,8 C 83 % 1018,5 hPa 0,0 l/m 0,0 km/h N-NW 343 0,0 km/h
23.04.2024 01:20 3,9 C 83 % 1018,7 hPa 0,0 l/m 0,0 km/h S-SW 204 0,0 km/h
23.04.2024 01:15 3,9 C 82 % 1018,7 hPa 0,2 l/m 2,4 km/h NW 316 16,1 km/h
23.04.2024 01:10 3,9 C 82 % 1018,7 hPa 0,0 l/m 0,1 km/h NW 323 6,4 km/h
23.04.2024 01:05 3,9 C 82 % 1018,7 hPa 0,0 l/m 0,2 km/h N-NW 346 9,7 km/h
23.04.2024 01:00 3,9 C 82 % 1018,8 hPa 0,0 l/m 1,0 km/h N-NO 12 12,9 km/h
23.04.2024 00:55 3,9 C 82 % 1018,9 hPa 0,0 l/m 0,5 km/h N-NO 28 11,3 km/h
23.04.2024 00:50 3,9 C 82 % 1018,9 hPa 0,2 l/m 0,0 km/h N 360 0,0 km/h
23.04.2024 00:45 4,1 C 81 % 1019,0 hPa 0,0 l/m 0,9 km/h N 360 12,9 km/h
23.04.2024 00:40 4,2 C 80 % 1019,0 hPa 0,0 l/m 1,0 km/h N-NO 25 12,9 km/h
23.04.2024 00:35 4,3 C 79 % 1019,0 hPa 0,0 l/m 2,5 km/h N-NW 331 14,5 km/h
23.04.2024 00:30 4,6 C 78 % 1019,1 hPa 0,0 l/m 2,7 km/h N 7 16,1 km/h
23.04.2024 00:25 4,8 C 75 % 1019,1 hPa 0,0 l/m 1,9 km/h N 351 12,9 km/h
23.04.2024 00:20 5,1 C 74 % 1019,1 hPa 0,0 l/m 0,0 km/h NW 326 1,6 km/h
23.04.2024 00:15 5,2 C 72 % 1019,1 hPa 0,0 l/m 0,7 km/h O 90 12,9 km/h
23.04.2024 00:10 5,3 C 71 % 1019,2 hPa 0,0 l/m 5,9 km/h O 100 24,1 km/h
23.04.2024 00:05 5,4 C 69 % 1019,0 hPa 0,0 l/m 0,8 km/h N 3 14,5 km/h
23.04.2024 00:00 5,6 C 69 % 1019,0 hPa 0,0 l/m 1,0 km/h N 2 16,1 km/h
22.04.2024 23:55 5,6 C 68 % 1019,1 hPa 0,0 l/m 11,1 km/h NW 312 24,1 km/h
22.04.2024 23:50 5,8 C 67 % 1019,0 hPa 0,0 l/m 5,3 km/h NW 325 17,7 km/h
22.04.2024 23:45 5,9 C 65 % 1019,1 hPa 0,0 l/m 4,6 km/h N-NW 344 19,3 km/h
22.04.2024 23:40 5,9 C 65 % 1019,1 hPa 0,0 l/m 2,0 km/h N 352 14,5 km/h
_ Min-Zeit 04:40 14:05 07:35 - 08:00 - - 08:00
Minimum _ 1,1 C 45 % 1016,7 hPa - 0,0 km/h - - 0,0 km/h
_ Max-Zeit 12:35 01:20 08:10 03:40 23:55 - - 23:55
Maximum _ 11,0 C 83 % 1019,9 hPa 0,4 l/m 11,1 km/h
NW
- - 24,1 km/h
N-NW
Durchschnitt _ 5,9 C 66 % 1018,8 hPa #9,8 l/m 0,3 km/h N - 3,3 km/h